Theta_e
350 345 342 339 337 336 339 342 340 336 341 340 340 339 336 335 333 331 328 326 323 320 315 315 316 316 317 317 316 316 316 316 316 315 326 331 335 334 336 337 344 345 335
350 348 345 342 341 337 341 340 340 341 344 346 344 339 337 333 329 326 323 319 315 314 316 317 317 316 314 313 313 312 312 313 315 328 339 339 335 334 338 339 344 345 340
349 349 346 345 344 341 338 339 341 343 343 344 340 337 332 329 326 321 316 314 315 316 317 316 315 316 318 319 320 320 320 317 313 328 334 344 343 335 339 340 340 341 340
349 350 347 345 345 344 341 335 334 337 338 336 334 331 328 325 320 315 314 316 317 317 317 317 318 320 320 321 321 321 321 321 320 323 327 333 344 335 337 340 341 341 341
347 348 344 344 344 344 340 336 336 337 338 331 330 328 323 316 313 314 316 317 317 317 317 319 321 323 324 324 324 324 323 322 323 325 324 324 333 334 328 339 341 339 341
348 347 343 344 343 341 337 336 337 337 331 330 328 323 315 313 316 316 317 317 317 318 319 321 324 325 325 324 323 323 323 323 324 324 324 324 329 329 319 326 338 339 339
346 345 342 341 339 338 332 336 337 328 328 328 320 314 313 314 316 317 318 318 318 319 320 322 324 325 325 325 324 323 323 323 324 324 323 322 323 322 319 313 318 324 328
342 343 342 337 336 336 335 335 334 330 329 322 314 313 314 316 317 318 318 319 320 320 322 323 323 324 325 325 325 323 323 322 323 322 321 321 320 316 311 311 313 316 318
344 344 344 343 338 332 333 336 334 332 324 316 313 313 315 317 318 318 319 320 321 321 322 324 324 325 324 325 325 323 323 321 322 322 321 320 319 310 308 310 319 324 323
342 342 342 340 343 340 337 335 333 330 320 313 313 314 316 318 319 320 321 322 322 322 323 324 324 325 324 325 324 323 323 322 322 321 320 318 316 309 309 310 315 324 325
340 340 339 340 339 337 336 336 335 328 317 314 314 316 319 326 325 328 328 329 323 323 324 324 325 325 326 326 324 323 322 322 322 321 321 319 317 309 309 309 312 318 319
340 339 339 339 339 341 339 336 337 333 320 323 329 329 327 332 332 331 331 328 327 325 325 326 327 327 327 326 325 323 323 322 322 321 321 319 317 310 310 310 316 323 323
339 337 336 337 337 338 337 337 335 333 331 328 332 333 332 333 332 332 331 332 333 332 330 329 329 328 327 325 324 323 323 322 321 321 320 319 316 310 311 310 319 324 323
335 335 334 335 336 336 335 334 333 331 329 327 329 332 331 333 332 333 331 332 332 331 330 329 328 326 324 324 323 323 323 322 321 320 320 319 318 311 315 313 322 322 322
333 332 332 332 331 332 333 332 330 328 326 327 327 330 329 331 332 331 331 331 330 329 328 327 327 324 324 322 323 322 322 321 320 319 320 320 318 314 318 320 321 321 320
332 331 330 329 329 329 328 328 328 328 326 323 323 324 324 326 328 328 329 329 328 329 328 325 323 323 321 321 321 322 321 320 319 318 319 319 319 318 315 319 320 319 317
330 329 327 326 325 326 328 328 327 326 327 324 324 323 324 324 324 324 325 325 325 325 324 324 323 322 321 321 320 320 318 318 319 318 319 318 320 319 319 317 315 315 314
323 322 322 324 324 324 322 322 322 321 322 321 321 322 323 323 323 323 323 323 323 323 322 322 322 321 321 320 318 316 316 318 318 318 317 318 319 320 320 319 317 316 313
324 323 321 320 320 320 320 320 320 320 321 322 320 317 317 315 315 316 318 319 320 320 320 320 319 321 320 316 315 316 316 317 318 317 317 317 317 317 319 318 317 315 315
323 322 322 321 320 319 318 317 317 316 317 318 320 317 317 319 318 318 318 317 315 316 316 317 318 319 318 316 314 317 318 318 317 317 316 316 315 316 316 316 315 316 317
322 321 321 321 320 318 315 315 315 315 315 316 317 314 315 314 314 314 315 315 315 318 317 317 318 318 318 316 318 316 316 317 317 316 315 314 314 314 315 313 315 316 316
322 321 321 321 319 318 314 314 314 314 314 314 314 314 314 312 313 313 313 314 315 316 317 319 317 317 318 317 315 316 315 316 314 316 315 314 314 313 314 315 315 315 315
321 321 321 320 319 317 315 314 314 314 313 313 312 312 311 311 311 312 313 313 315 315 315 317 316 316 317 317 317 316 316 316 315 314 314 314 313 313 314 315 314 312 312
321 320 320 318 317 315 315 314 314 313 312 311 311 311 310 310 309 312 313 314 314 314 314 316 314 315 315 316 316 316 316 316 316 315 314 313 312 312 312 312 313 313 311
320 318 317 316 316 315 313 313 312 311 311 312 312 312 311 310 310 313 311 312 312 312 313 313 313 313 315 316 316 316 315 315 316 316 315 314 313 312 312 311 312 313 312
318 317 315 315 314 313 312 311 311 311 312 312 312 312 311 311 311 312 312 311 310 311 312 312 313 312 313 313 314 314 313 314 315 314 315 314 313 312 311 311 311 313 312
Wind_Speed
11 6 10 8 7 7 8 8 9 10 9 8 7 6 6 6 7 8 9 8 8 9 11 12 12 12 12 11 11 11 11 11 10 10 10 9 2 2 4 6 6 3 2
10 9 9 8 6 5 6 7 8 8 7 7 6 5 5 6 8 9 10 10 11 11 12 12 12 13 14 15 15 15 14 13 13 13 11 10 1 1 1 3 5 4 4
5 5 8 8 6 5 5 5 6 8 8 6 4 4 6 8 9 9 10 11 11 11 12 13 15 15 16 16 16 16 16 15 14 15 14 8 9 6 3 4 4 5 5
7 9 6 6 5 5 4 4 5 6 6 6 6 7 9 10 11 11 11 11 11 11 12 13 14 15 16 16 16 16 15 14 12 11 8 6 3 7 5 4 5 6 6
5 6 5 4 3 2 3 3 4 4 5 5 7 9 10 11 12 12 11 10 10 10 11 12 13 15 16 17 18 17 15 13 13 12 7 6 6 11 7 7 5 6 5
12 5 4 3 2 2 2 4 4 5 5 7 10 11 11 11 11 11 9 9 8 8 8 10 13 14 15 18 19 19 18 15 10 9 9 8 7 13 11 9 11 12 12
11 2 3 3 2 2 2 4 4 5 7 9 10 12 12 12 10 8 7 6 5 5 5 6 10 13 15 16 19 19 20 18 13 10 9 8 12 14 16 12 12 14 16
7 7 3 3 3 3 3 3 3 7 9 10 11 11 11 10 9 7 5 3 1 2 3 4 9 12 14 17 18 19 19 18 11 10 10 8 14 14 15 14 14 14 15
11 11 11 5 3 2 3 4 4 6 8 9 9 9 9 8 7 5 4 2 2 2 3 5 9 12 15 18 18 19 20 15 13 11 11 9 14 19 15 12 12 11 13
8 7 4 6 4 5 3 3 2 4 6 7 9 9 8 6 6 5 4 6 5 6 7 8 10 13 16 17 21 19 19 16 15 11 11 16 18 20 16 13 12 13 13
8 8 7 7 6 3 1 3 2 4 5 5 6 8 6 3 4 5 5 11 11 11 11 12 13 14 14 17 19 23 16 13 14 11 12 19 22 20 16 12 10 11 13
9 8 8 7 6 3 1 2 6 9 6 4 7 9 5 8 6 9 8 14 16 16 14 12 12 11 10 9 11 15 13 15 13 12 15 21 22 18 13 10 4 6 9
11 11 8 8 6 10 6 0 4 9 10 12 10 7 8 10 9 11 12 17 13 9 9 12 12 8 8 12 13 13 13 12 13 11 15 22 22 16 11 6 3 5 8
14 14 13 10 12 9 9 11 6 4 2 4 8 10 11 12 14 13 14 11 6 4 9 10 11 9 12 16 12 11 12 12 11 11 13 20 21 13 8 1 3 2 6
14 15 14 14 12 10 5 8 4 6 8 9 14 9 14 12 15 14 14 13 16 11 15 14 12 14 19 11 10 13 13 12 11 10 9 17 20 13 4 4 3 3 8
13 13 12 14 14 13 11 8 6 3 2 11 14 18 17 15 18 20 18 21 23 22 18 15 17 21 22 9 11 12 14 13 10 10 10 12 16 14 9 8 8 9 10
10 8 10 10 10 9 6 5 3 2 3 6 11 15 16 16 17 18 20 21 22 23 24 27 27 29 23 12 12 12 12 14 15 11 10 6 13 16 8 8 14 14 12
13 15 16 16 14 15 14 15 10 11 7 8 9 12 13 14 15 15 18 20 17 15 15 18 20 23 21 18 17 13 18 14 15 12 8 8 7 8 10 10 10 15 15
15 13 13 14 14 13 13 10 11 13 12 11 14 17 15 15 14 15 16 17 19 21 26 21 21 19 19 12 13 17 10 14 11 9 9 8 7 8 8 13 14 11 12
12 12 13 13 15 12 12 12 11 11 11 12 9 11 13 11 13 16 16 18 18 16 20 21 22 17 13 15 12 9 14 13 10 10 8 8 7 8 9 12 13 12 9
11 12 12 13 15 15 16 13 13 13 12 10 10 11 13 12 13 14 14 13 16 19 17 16 15 13 12 8 10 11 14 13 10 8 7 7 8 6 9 12 11 9 9
9 8 12 14 15 16 16 14 13 13 11 12 7 16 6 12 13 13 13 14 13 15 14 18 16 14 10 10 9 13 12 6 12 11 8 7 5 8 9 7 7 3 5
6 9 12 14 14 15 18 16 15 13 13 13 16 17 19 18 14 17 14 14 14 13 15 16 14 13 10 10 12 8 7 4 7 11 11 6 7 7 7 7 10 11 9
8 11 12 13 14 16 18 19 17 17 18 17 14 15 19 16 15 12 13 12 15 13 13 16 11 11 12 11 8 9 13 11 6 3 6 8 6 5 4 5 10 10 8
7 11 14 14 16 16 19 18 16 17 18 17 16 15 16 15 16 10 13 12 12 12 13 13 10 10 10 11 9 8 8 8 8 8 7 6 5 6 6 8 8 8 9
12 13 17 16 18 20 19 17 18 19 17 17 15 14 14 16 13 12 12 12 11 10 8 8 7 9 10 12 9 8 7 5 4 5 5 5 5 5 8 7 7 8 6
Wind_Direction
122 161 150 150 145 139 150 159 163 171 174 169 154 143 119 117 122 127 128 128 120 108 99 93 84 77 69 61 54 47 42 39 40 47 37 15 11 130 108 116 90 122 303
121 135 141 154 155 155 139 159 175 177 174 165 154 139 134 135 136 135 134 128 115 104 94 85 78 71 65 59 53 46 41 40 48 67 24 22 41 194 104 166 159 219 263
115 132 141 148 158 176 173 157 166 178 184 200 190 172 162 154 146 139 129 120 114 105 95 84 76 69 62 55 48 42 41 45 62 69 49 123 356 323 281 273 251 258 264
91 126 143 145 155 162 178 183 178 183 192 191 182 172 165 160 154 144 136 125 113 101 89 78 65 53 45 40 35 31 26 31 46 56 37 32 348 337 288 307 296 287 286
100 125 141 139 144 152 160 166 168 171 171 173 174 168 164 157 148 142 137 128 115 100 85 71 59 47 36 29 22 16 16 16 38 20 20 14 8 306 297 267 290 286 248
117 83 122 117 100 119 153 157 171 167 178 176 175 170 163 155 150 149 141 130 119 101 84 68 51 37 31 26 21 13 7 5 22 347 357 343 288 274 294 264 261 263 266
101 60 81 75 62 86 142 162 164 176 183 182 177 173 168 162 158 151 141 129 120 110 93 66 35 25 17 11 9 6 6 4 29 343 352 352 285 291 292 273 259 260 266
75 90 32 26 89 119 155 167 192 181 185 185 185 181 174 169 163 164 162 164 148 96 58 13 4 2 3 0 359 358 1 8 37 349 347 324 296 304 299 280 276 270 270
82 107 91 49 50 57 146 160 181 201 195 195 196 193 187 183 182 189 208 226 239 254 307 336 348 349 349 351 353 352 355 9 30 343 342 291 301 315 303 279 268 277 280
64 71 51 58 82 117 152 170 170 229 210 202 207 203 200 207 215 225 249 250 267 281 303 319 331 338 340 352 353 353 354 13 356 340 333 297 315 322 308 285 266 268 272
64 63 37 56 80 87 192 174 175 205 214 221 234 225 218 218 267 269 231 255 282 287 301 313 319 330 350 360 348 341 7 340 338 330 319 303 313 321 312 290 276 289 283
57 54 46 50 42 41 73 189 156 185 186 122 273 264 245 238 240 229 252 283 299 294 293 309 327 352 3 334 330 334 331 332 330 321 307 302 315 322 315 296 270 306 310
59 70 51 70 61 13 15 325 268 261 265 198 230 259 250 266 263 271 276 289 287 299 311 295 326 338 300 331 327 325 322 326 317 315 303 305 320 325 322 290 210 303 306
61 63 57 52 49 44 33 47 61 126 126 253 273 236 239 266 269 257 257 294 286 245 244 254 249 245 296 321 320 313 311 313 308 309 306 306 320 324 337 254 201 262 300
66 62 55 55 67 71 83 53 22 210 205 219 231 256 238 242 253 248 255 252 260 255 240 235 246 285 308 318 313 300 298 304 300 303 309 306 311 324 309 220 243 264 286
62 58 52 43 37 40 43 41 24 352 248 246 246 254 269 263 262 261 249 245 252 243 242 254 282 297 306 302 292 288 296 299 290 290 297 303 303 316 303 267 261 267 292
81 71 56 44 46 45 41 55 73 353 340 277 269 276 285 289 285 279 273 270 268 266 272 280 286 284 293 276 269 288 293 295 294 289 294 286 294 300 296 302 284 286 290
65 56 48 45 34 29 26 13 14 8 351 337 321 305 298 293 288 286 283 277 277 283 301 295 287 292 281 265 264 278 305 287 286 282 291 276 275 286 281 294 296 295 285
54 53 44 38 29 29 18 14 2 351 342 340 339 336 328 327 325 315 298 291 288 288 290 282 289 280 274 257 277 298 303 283 278 285 273 288 282 283 285 304 314 305 295
54 39 32 25 22 20 6 1 345 339 332 329 319 322 324 322 337 326 324 324 318 306 291 278 273 274 259 276 276 293 273 273 271 276 278 296 289 286 285 280 306 295 286
59 24 18 15 12 16 7 4 354 345 340 327 327 329 324 331 322 315 310 299 301 297 296 280 275 266 256 269 280 282 272 257 267 266 272 277 291 309 285 281 281 291 309
43 29 4 9 6 5 7 0 353 345 339 329 333 336 309 328 314 300 301 293 300 286 286 285 269 246 235 247 258 282 281 236 256 247 250 264 267 301 289 297 290 291 294
32 9 358 1 360 3 1 351 343 343 331 334 324 314 318 321 312 313 301 295 295 293 287 290 278 248 238 250 249 263 281 271 235 232 220 242 277 289 301 307 303 301 290
1 353 359 353 358 355 355 348 344 339 337 332 330 320 325 318 323 310 294 291 286 282 281 287 279 249 246 255 246 261 260 289 294 246 239 232 265 288 298 303 292 309 297
348 5 1 347 348 349 343 341 336 330 328 326 319 319 324 328 316 309 307 300 301 294 280 291 286 255 254 258 264 264 253 257 264 274 276 268 264 278 292 299 309 289 296
355 355 345 345 346 345 342 334 335 323 325 321 322 329 328 325 321 308 311 310 311 313 309 312 300 276 269 259 260 267 258 247 244 259 275 287 288 277 298 302 288 319 326